Location: Stara Lesna
(49.1528°N, 20.2911°E)
Time: 02:49:19
(UTC+02:00)

Cosmos 1900 - Pass Details

Date: 13 July 2020
Orbit: 682 x 740 km, 66.1° (Epoch: 11 August)

Event Time Altitude Azimuth Distance (km) Brightness Sun altitude
Exits shadow 03:43:48 11° 213° (SSW) 2,102 6.1 -8.7°
Maximum altitude 03:48:34 84° 126° (SE) 712 4.4 -8.1°
Drops below altitude 10° 03:53:35 10° 38° (NE) 2,198 8.6 -7.6°
Sets 03:55:58 0° 38° (NE) 3,132 10.1 -7.3°
